Date_and_time,latitude,longitude,wind_speed,RelWindDirFrom,WindDirFrom,air_pressure,air_temperature,relative_humidity,Temp,platform_speed_wrt_ground,air_pressure_at_mean_sea_level,platform_orientation
2018-07-23 23:40,50.6304433333333,-96.9807616666667,9.1,14.3,270,988.14,22.3,47,24.04,0.0,1013.86,106.8
2018-07-23 23:50,50.6304333333333,-96.9807516666667,6.3,12.1,267,988.21,22.3,48,24.02,0.0,1013.92,106.8
2018-07-24 00:00,50.6304466666667,-96.9807583333333,6.6,10.6,279,988.23,22.1,49,23.97,0.0,1013.95,54.7
2018-07-24 00:10,50.6304483333333,-96.98076,5.3,8.5,282,988.29,21.6,50,23.95,0.0,1014.04,54.7
2018-07-24 00:20,50.6304316666667,-96.980755,5.9,10.4,277,988.31,21.4,52,23.95,0.0,1014.08,54.7
2018-07-24 00:30,50.630435,-96.980755,8.8,13.7,277,988.32,21.2,51,23.92,0.0,1014.10,54.7
2018-07-24 00:40,50.6304366666667,-96.980755,9.3,14.5,278,988.37,21.0,50,23.88,0.0,1014.15,54.7
2018-07-24 00:50,50.6304366666667,-96.980755,7.3,12.3,273,988.40,20.8,52,23.82,0.0,1014.20,54.7
2018-07-24 01:00,50.630435,-96.980755,6.7,10.8,263,988.41,20.6,52,23.85,0.0,1014.23,0.0
2018-07-24 01:10,50.6304366666667,-96.9807533333333,5.6,10.3,258,988.41,20.5,53,23.83,0.0,1014.23,0.0
2018-07-24 01:20,50.6304416666667,-96.9807566666667,5.8,9.1,247,988.43,20.4,54,23.78,0.0,1014.26,0.0
2018-07-24 01:30,50.630445,-96.9807766666667,6.6,11.6,257,988.38,20.3,53,23.77,0.0,1014.22,0.0
2018-07-24 01:40,50.63044,-96.9807616666667,5.9,9.3,256,988.33,20.1,53,23.75,0.0,1014.17,0.0
2018-07-24 01:50,50.6304366666667,-96.9807616666667,5.8,9.6,258,988.32,19.9,53,23.73,0.0,1014.19,0.0
2018-07-24 02:00,50.6304366666667,-96.9807616666667,6.8,9.8,261,988.34,19.6,53,23.72,0.0,1014.24,270.0
2018-07-24 02:10,50.6304383333333,-96.9807616666667,5.2,7.8,257,988.39,19.4,54,23.70,0.0,1014.31,270.0
2018-07-24 02:20,50.6304366666667,-96.98076,4.9,7.3,245,988.37,19.0,57,23.65,0.0,1014.32,270.0
2018-07-24 02:30,50.6304383333333,-96.9807616666667,5.0,7.2,244,988.34,18.4,59,23.65,0.0,1014.32,270.0
2018-07-24 02:40,50.6304383333333,-96.98076,4.4,5.9,241,988.30,18.2,60,23.63,0.0,1014.29,270.0
2018-07-24 02:50,50.6304383333333,-96.98076,5.1,7.3,236,988.36,18.0,62,23.53,0.0,1014.37,270.0
2018-07-24 03:00,50.630435,-96.9807733333333,5.1,7.2,233,988.39,17.8,63,23.51,0.0,1014.42,216.6
2018-07-24 03:10,50.630435,-96.98076,4.0,5.6,232,988.41,17.7,64,23.54,0.0,1014.45,216.6
2018-07-24 03:20,50.6304366666667,-96.9807633333333,4.5,6.4,222,988.41,17.6,65,23.53,0.0,1014.46,216.6
2018-07-24 03:30,50.6304383333333,-96.9807633333333,4.3,6.1,219,988.40,17.4,66,23.50,0.0,1014.46,216.6
2018-07-24 03:40,50.6304383333333,-96.9807633333333,4.9,6.3,221,988.34,17.3,67,23.50,0.0,1014.43,216.6
2018-07-24 03:50,50.6304533333333,-96.980755,4.7,7.2,229,988.25,17.2,68,23.49,0.0,1014.34,216.6
2018-07-24 04:00,50.63044,-96.98075,4.4,6.3,234,988.31,17.1,68,23.44,0.0,1014.42,12.6
2018-07-24 04:10,50.6304266666667,-96.9807666666667,3.9,6.1,236,988.33,17.0,67,23.43,0.0,1014.46,12.6
2018-07-24 04:20,50.63045,-96.98075,4.2,5.9,229,988.35,17.0,68,23.43,0.0,1014.51,12.6
2018-07-24 04:30,50.6304383333333,-96.98076,4.2,5.9,224,988.30,16.8,70,23.43,0.0,1014.47,12.6
2018-07-24 04:40,50.6304366666667,-96.980765,4.9,7.1,223,988.23,16.6,70,23.41,0.0,1014.42,12.6
2018-07-24 04:50,50.63044,-96.9807633333333,5.0,6.8,219,988.24,16.5,71,23.39,0.0,1014.44,12.6
2018-07-24 05:00,50.6304333333333,-96.98077,5.3,8.4,220,988.21,16.2,73,23.37,0.0,1014.44,228.3
2018-07-24 05:10,50.6304416666667,-96.9807633333333,4.9,7.3,224,988.12,16.0,73,23.35,0.0,1014.35,228.3
2018-07-24 05:20,50.63045,-96.980765,5.3,8.2,228,988.06,16.0,73,23.33,0.0,1014.31,228.3
2018-07-24 05:30,50.63044,-96.9807633333333,5.0,6.8,228,988.08,16.0,73,23.32,0.0,1014.33,228.3
2018-07-24 05:40,50.6304416666667,-96.98076,6.0,9.6,239,988.00,16.1,71,23.31,0.0,1014.25,228.3
2018-07-24 05:50,50.6304433333333,-96.9807583333333,6.8,9.5,244,987.94,16.1,70,23.29,0.0,1014.19,228.3
2018-07-24 06:00,50.6304416666667,-96.98076,5.6,7.6,239,987.89,16.0,71,23.28,0.0,1014.15,60.8
2018-07-24 06:10,50.6304416666667,-96.9807616666667,5.2,7.7,238,987.84,16.0,71,23.26,0.0,1014.10,60.8
2018-07-24 06:20,50.6304416666667,-96.9807616666667,6.0,8.9,227,987.88,15.8,73,23.23,0.0,1014.15,60.8
2018-07-24 06:30,50.63044,-96.9807633333333,5.6,8.5,229,987.88,15.8,73,23.21,0.0,1014.16,60.8
2018-07-24 06:40,50.6304,-96.9807533333333,5.1,7.1,232,987.91,15.5,74,23.18,0.0,1014.21,60.8
2018-07-24 06:50,50.6304316666667,-96.980765,4.7,7.1,226,987.87,15.5,76,23.17,0.0,1014.19,60.8
2018-07-24 07:00,50.6304366666667,-96.9807666666667,5.0,7.4,231,987.80,15.3,77,23.15,0.0,1014.13,234.7
2018-07-24 07:10,50.6304416666667,-96.9807583333333,5.2,7.7,238,987.82,15.1,76,23.15,0.0,1014.16,234.7
2018-07-24 07:20,50.6304383333333,-96.980755,5.3,7.8,239,987.81,15.1,76,23.15,0.0,1014.15,234.7
2018-07-24 07:30,50.6304366666667,-96.9807566666667,4.7,6.9,244,987.89,15.0,76,23.13,0.0,1014.23,234.7
2018-07-24 07:40,50.6304383333333,-96.9807583333333,3.9,5.9,245,987.92,14.8,76,23.10,0.0,1014.28,234.7
2018-07-24 07:50,50.6304383333333,-96.9807566666667,3.4,5.0,238,987.95,14.5,78,23.09,0.0,1014.32,234.7
2018-07-24 08:00,50.6304383333333,-96.98076,3.1,4.8,230,987.95,14.5,79,23.09,0.0,1014.32,14.5
2018-07-24 08:10,50.6304383333333,-96.9807566666667,3.8,5.7,223,987.89,14.5,81,23.09,0.0,1014.27,14.5
2018-07-24 08:20,50.6304383333333,-96.980765,4.6,6.1,221,987.92,14.4,83,23.08,0.0,1014.31,14.5
2018-07-24 08:30,50.6304383333333,-96.9807616666667,4.7,7.0,223,987.97,14.3,83,23.08,0.0,1014.38,14.5
2018-07-24 08:40,50.630435,-96.9807616666667,5.4,7.0,223,987.93,14.1,82,23.08,0.0,1014.35,14.5
2018-07-24 08:50,50.6304383333333,-96.9807616666667,5.3,7.0,223,987.89,14.0,82,23.07,0.0,1014.33,14.5
2018-07-24 09:00,50.6304383333333,-96.9807616666667,4.6,6.5,228,987.89,14.0,84,23.06,0.0,1014.33,90.0
2018-07-24 09:10,50.6304383333333,-96.9807616666667,4.5,7.0,228,987.87,13.9,85,23.05,0.0,1014.31,90.0
2018-07-24 09:20,50.6304366666667,-96.9807733333333,4.9,7.4,231,987.89,13.7,85,23.04,0.0,1014.35,90.0
2018-07-24 09:30,50.63044,-96.98076,5.0,7.4,231,987.86,13.6,85,23.02,0.0,1014.33,90.0
2018-07-24 09:40,50.6304416666667,-96.980765,5.0,6.9,230,987.84,13.5,85,23.01,0.0,1014.33,90.0
2018-07-24 09:50,50.6304383333333,-96.98076,4.5,6.9,231,987.86,13.7,87,22.97,0.0,1014.35,90.0
2018-07-24 10:00,50.63044,-96.98076,5.0,6.9,233,987.85,13.5,87,22.96,0.0,1014.34,12.6
2018-07-24 10:10,50.63046,-96.9807833333333,6.0,8.9,235,987.93,13.5,86,22.95,0.0,1014.43,12.6
2018-07-24 10:20,50.63044,-96.9807666666667,4.7,7.3,236,987.94,13.6,87,22.91,0.0,1014.43,12.6
2018-07-24 10:30,50.63046,-96.980765,4.6,7.2,238,987.89,13.7,88,22.89,0.0,1014.39,12.6
2018-07-24 10:40,50.6304433333333,-96.980755,5.3,7.0,238,987.85,13.7,88,22.88,0.0,1014.35,12.6
2018-07-24 10:50,50.6304383333333,-96.9807583333333,5.8,7.8,238,987.89,13.7,89,22.88,0.0,1014.39,12.6
2018-07-24 11:00,50.6304383333333,-96.9807566666667,5.0,6.9,237,987.90,13.8,89,22.86,0.0,1014.40,0.0
2018-07-24 11:10,50.6304383333333,-96.9807566666667,4.8,6.7,237,987.89,13.9,89,22.84,0.0,1014.40,0.0
2018-07-24 11:20,50.6304383333333,-96.98076,4.3,6.3,241,987.88,14.0,90,22.83,0.0,1014.39,0.0
2018-07-24 11:30,50.6304383333333,-96.9807616666667,4.3,6.1,234,987.83,14.1,90,22.81,0.0,1014.34,0.0
2018-07-24 11:40,50.6304416666667,-96.98079,4.9,7.0,240,987.81,14.2,89,22.80,0.0,1014.31,0.0
2018-07-24 11:50,50.6304466666667,-96.9807766666667,5.3,7.5,241,987.78,14.3,88,22.77,0.0,1014.27,0.0
2018-07-24 12:00,50.630445,-96.98077,5.5,9.3,245,987.74,14.7,86,22.75,0.0,1014.22,270.0
2018-07-24 12:10,50.6304416666667,-96.9807733333333,4.9,7.2,247,987.74,14.9,84,22.74,0.0,1014.20,270.0
2018-07-24 12:20,50.6304416666667,-96.9807733333333,5.1,7.4,246,987.81,15.4,82,22.73,0.0,1014.25,270.0
2018-07-24 12:30,50.6304416666667,-96.9807716666667,6.0,10.1,248,987.83,15.7,81,22.71,0.0,1014.25,270.0
2018-07-24 12:40,50.6304416666667,-96.9807683333333,6.3,10.1,257,987.84,15.8,80,22.69,0.0,1014.26,270.0
2018-07-24 12:50,50.6304466666667,-96.9807283333333,5.9,10.1,263,987.82,16.0,78,22.68,0.0,1014.22,270.0
2018-07-24 13:00,50.63044,-96.9807566666667,6.9,11.5,261,987.88,16.2,77,22.66,0.0,1014.27,0.0
2018-07-24 13:10,50.6304383333333,-96.9807583333333,6.2,11.1,263,987.86,16.4,75,22.65,0.0,1014.23,0.0
2018-07-24 13:20,50.6304366666667,-96.9807533333333,7.7,13.1,260,987.93,16.5,74,22.65,0.0,1014.29,0.0
2018-07-24 13:30,50.6304366666667,-96.98075,8.6,15.3,259,988.00,16.6,74,22.63,0.0,1014.36,0.0
2018-07-24 13:40,50.6304366666667,-96.9807516666667,8.7,14.1,268,987.98,16.8,73,22.63,0.0,1014.33,0.0
2018-07-24 13:50,50.6304383333333,-96.9807533333333,9.1,13.0,269,987.96,17.0,72,22.63,0.0,1014.28,0.0
2018-07-24 14:00,50.630445,-96.9807666666667,7.9,14.5,265,987.98,17.4,71,22.62,0.0,1014.28,270.0
2018-07-24 14:10,50.6304416666667,-96.9807583333333,9.1,14.1,264,988.01,17.6,70,22.62,0.0,1014.27,270.0
2018-07-24 14:20,50.6304433333333,-96.9807566666667,7.7,13.7,268,988.15,18.0,68,22.63,0.0,1014.38,270.0
2018-07-24 14:30,50.63045,-96.9807516666667,7.6,13.9,256,988.24,18.3,67,22.65,0.0,1014.45,270.0
2018-07-24 14:40,50.6304383333333,-96.9807533333333,8.8,13.7,256,988.24,18.3,67,22.66,0.0,1014.45,270.0
2018-07-24 14:50,50.6304416666667,-96.980755,8.5,12.9,276,988.15,18.5,65,22.66,0.0,1014.34,270.0
2018-07-24 15:00,50.6304416666667,-96.980755,9.6,17.1,269,988.16,18.8,64,22.65,0.0,1014.33,90.0
2018-07-24 15:10,50.6304433333333,-96.980755,7.6,11.5,279,988.15,19.2,64,22.66,0.0,1014.29,90.0
2018-07-24 15:20,50.6304433333333,-96.9807566666667,8.3,14.9,286,988.11,19.0,64,22.69,0.0,1014.25,90.0
2018-07-24 15:30,50.630445,-96.9807566666667,8.3,13.6,268,988.22,19.1,63,22.71,0.0,1014.36,90.0
2018-07-24 15:40,50.630445,-96.9807566666667,9.0,14.6,277,988.23,19.0,63,22.74,0.0,1014.37,90.0
2018-07-24 15:50,50.630445,-96.9807566666667,6.8,11.5,276,988.23,19.3,62,22.75,0.0,1014.34,90.0
2018-07-24 16:00,50.630445,-96.9807566666667,8.1,14.0,272,988.15,19.4,61,22.75,0.0,1014.23,90.0
2018-07-24 16:10,50.630445,-96.9807566666667,7.7,14.0,268,988.18,19.7,61,22.77,0.0,1014.23,90.0
2018-07-24 16:20,50.6304466666667,-96.9807566666667,8.3,13.6,249,988.27,19.6,60,22.79,0.0,1014.32,90.0
2018-07-24 16:30,50.6304466666667,-96.9807566666667,9.4,14.2,256,988.29,19.6,61,22.80,0.0,1014.34,90.0
2018-07-24 16:40,50.6304633333333,-96.9807733333333,8.6,13.6,266,988.27,19.7,58,22.81,0.0,1014.30,90.0
2018-07-24 16:50,50.6304316666667,-96.980765,7.6,12.8,262,988.40,19.8,59,22.83,0.0,1014.42,90.0
2018-07-24 17:00,50.6304366666667,-96.980765,7.4,14.3,266,988.45,19.7,59,22.84,0.0,1014.46,142.0
2018-07-24 17:10,50.6304516666667,-96.9807683333333,8.5,14.4,266,988.58,19.5,60,22.84,0.0,1014.60,142.0
2018-07-24 17:20,50.63044,-96.9807566666667,8.5,13.8,254,988.71,19.3,62,22.84,0.0,1014.74,142.0
2018-07-24 17:30,50.63044,-96.980755,8.5,13.4,263,988.73,19.4,63,22.84,0.0,1014.77,142.0
2018-07-24 17:40,50.6304416666667,-96.980755,7.0,10.9,259,988.74,19.0,65,22.84,0.0,1014.78,142.0
2018-07-24 17:50,50.6304383333333,-96.9807616666667,8.0,14.0,276,988.66,19.5,62,22.83,0.0,1014.67,142.0
2018-07-24 18:00,50.6304433333333,-96.9807616666667,8.2,13.0,283,988.61,19.3,64,22.83,0.0,1014.62,0.0
2018-07-24 18:10,50.6304433333333,-96.9807633333333,7.8,15.8,274,988.61,19.5,62,22.84,0.0,1014.61,0.0
2018-07-24 18:20,50.630445,-96.9807633333333,8.3,14.3,263,988.72,19.7,61,22.85,0.0,1014.72,0.0
2018-07-24 18:30,50.6304283333333,-96.980775,8.7,14.2,278,988.61,19.9,59,22.87,0.0,1014.58,0.0
2018-07-24 18:40,50.630435,-96.980765,9.0,13.7,279,988.58,19.9,59,22.86,0.0,1014.56,0.0
2018-07-24 18:50,50.630435,-96.9807566666667,7.6,12.8,262,988.71,19.7,60,22.89,0.0,1014.69,0.0
2018-07-24 19:00,50.6304366666667,-96.9807533333333,8.6,15.4,258,988.75,19.2,65,22.90,0.0,1014.78,131.7
2018-07-24 19:10,50.6304366666667,-96.980755,6.4,9.4,253,988.67,19.1,66,22.88,0.0,1014.70,131.7
2018-07-24 19:20,50.6304366666667,-96.9807566666667,9.1,13.4,248,988.67,19.6,62,22.88,0.0,1014.68,131.7
2018-07-24 19:30,50.6304483333333,-96.9807616666667,8.3,13.6,250,988.65,19.6,62,22.87,0.0,1014.67,131.7
2018-07-24 19:40,50.6304466666667,-96.980765,7.8,13.6,260,988.60,19.8,61,22.87,0.0,1014.59,131.7
2018-07-24 19:50,50.63045,-96.9807633333333,7.8,13.3,281,988.57,20.4,58,22.88,0.0,1014.54,131.7
2018-07-24 20:00,50.6304516666667,-96.980765,8.2,15.2,280,988.55,20.6,58,22.89,0.0,1014.51,360.0
2018-07-24 20:10,50.6304483333333,-96.9807666666667,10.7,18.5,273,988.57,20.6,56,22.91,0.0,1014.52,360.0
2018-07-24 20:20,50.63045,-96.9807666666667,9.3,14.9,279,988.57,20.6,57,22.93,0.0,1014.51,360.0
2018-07-24 20:30,50.6304483333333,-96.9807683333333,9.9,17.7,292,988.55,20.5,57,22.94,0.0,1014.50,360.0
2018-07-24 20:40,50.6304483333333,-96.98077,10.2,16.3,285,988.69,20.3,57,22.96,0.0,1014.65,360.0
2018-07-24 20:50,50.6304483333333,-96.98077,10.5,17.3,293,988.73,20.0,59,22.95,0.0,1014.73,360.0
2018-07-24 21:00,50.6304483333333,-96.98077,10.1,15.7,288,988.79,19.8,59,22.93,0.0,1014.80,347.4
2018-07-24 21:10,50.63046,-96.98078,10.5,17.4,280,988.82,19.7,60,22.91,0.0,1014.82,347.4
2018-07-24 21:20,50.630445,-96.980765,8.6,14.0,281,988.81,19.8,59,22.88,0.0,1014.80,347.4
2018-07-24 21:30,50.6304366666667,-96.98076,8.6,15.5,298,988.69,19.9,59,22.86,0.0,1014.67,347.4
2018-07-24 21:40,50.6304333333333,-96.9807616666667,8.8,14.4,296,988.74,19.8,59,22.87,0.0,1014.70,347.4
2018-07-24 21:50,50.6304316666667,-96.9807783333333,8.8,14.4,293,988.79,19.6,59,22.87,0.0,1014.75,347.4
2018-07-24 22:00,50.63043,-96.98077,7.0,11.5,290,988.89,19.6,60,22.86,0.0,1014.85,216.6
2018-07-24 22:10,50.6304316666667,-96.9807683333333,8.1,14.1,282,988.95,19.5,60,22.86,0.0,1014.91,216.6
2018-07-24 22:20,50.6304333333333,-96.9807683333333,9.0,13.8,277,988.98,19.4,60,22.85,0.0,1014.96,216.6
2018-07-24 22:30,50.6304366666667,-96.9807583333333,7.9,13.4,282,988.95,19.3,61,22.83,0.0,1014.94,216.6
2018-07-24 22:40,50.6304383333333,-96.9807566666667,7.8,11.9,281,988.89,19.3,62,22.81,0.0,1014.89,216.6
2018-07-24 22:50,50.6304383333333,-96.9807566666667,8.3,13.2,272,988.91,19.2,62,22.80,0.0,1014.92,216.6
2018-07-24 23:00,50.6304333333333,-96.9807716666667,8.1,12.6,278,988.91,19.2,62,22.80,0.0,1014.93,360.0
2018-07-24 23:10,50.630435,-96.98077,7.3,12.6,281,988.95,19.2,63,22.80,0.0,1014.97,360.0
2018-07-24 23:20,50.630435,-96.9807683333333,6.9,12.5,273,988.96,19.2,63,22.79,0.0,1014.97,360.0
2018-07-24 23:30,50.6304366666667,-96.9807666666667,5.9,9.5,274,988.95,19.3,63,22.77,0.0,1014.96,360.0
2018-07-24 23:40,50.6304366666667,-96.980765,6.7,12.1,278,988.94,19.4,62,22.77,0.0,1014.96,360.0
2018-07-24 23:50,50.6304533333333,-96.9807783333333,5.6,9.4,284,988.99,19.3,63,22.77,0.0,1015.01,360.0
